Content
SEND FEEDBACK

Daily
Averages
Monthly
Summary
United States of America

MAURICEVILLE, TEXAS


Home > North America > United States > Texas
Elevation: 6 meters     Latitude: 30 14N     Longitude: 093 44W

WEATHER
 
SELECT A DAY
Number of Records: 107,284;   Date Range: 8/25/05 - 7/6/14
 
SHARE

PRINT THIS DATA

[ ← Previous Day ]
WEATHER ALMANAC - 25 SEPTEMBER, 2013
[ Next Day → ]
[ °F ]   °C
Weather ElementAverageHighLow
Temperature24.6 °C32.7 °C (2:35 pm)18.8 °C (7:15 am)
Dewpoint18.6 °C23.3 °C (9:55 am)9.9 °C (4:55 pm)
Humidity75.3 %98 % (3:15 am)25 % (4:55 pm)
Barometer1010.5 hPa1012.2 hPa (10:15 am)1009.1 hPa (4:15 pm)
Wind Speed2.7 km/h9.3 km/h (10:35 am)
Weather ElementAverage
Visibility10.3 km
Wind DirectionESE (112.5 °)

Weather ElementTotal
Precipitation---
Cooling Degree Days7.4 (Base 18.3)
Growing Degree Days15.8 (Base 10)
Averaged from 71 records on 25 September, 2013
WEATHER CONDITIONS BREAKOUT
WIND DIRECTION BREAKOUT
WEATHER BY HOUR - 25 SEPTEMBER, 2013
[ °F ]   °C
Local TimeTemperatureDewpointHumidityBarometerVisibilityWind DirectionWind SpeedGust SpeedPrecipitationEventsConditions
12:35 AM22.2 °C21.7 °C97 %1010.8 hPa4 kmCalmClear
12:55 AM21.9 °C21.4 °C97 %1010.8 hPa6.4 kmCalmClear
1:15 AM21.9 °C21.4 °C97 %1010.5 hPa4 kmCalmClear
1:35 AM21.7 °C21.2 °C97 %1010.5 hPa1.3 kmCalmMist
1:55 AM21.6 °C21.1 °C97 %1010.5 hPa1.3 kmCalmMist
2:15 AM21.5 °C21 °C97 %1010.5 hPa1.3 kmCalmMist
2:35 AM21.2 °C20.7 °C97 %1010.5 hPa1.3 kmCalmMist
2:55 AM21 °C20.5 °C97 %1010.5 hPa1.3 kmCalmMist
3:15 AM20.9 °C20.5 °C98 %1010.2 hPa1.3 kmCalmMist
3:35 AM20.8 °C20.4 °C98 %1010.2 hPa1.3 kmCalmMist
3:55 AM20.6 °C20.2 °C98 %1010.2 hPa0.8 kmCalmFogFog
4:15 AM20.3 °C19.9 °C98 %1010.2 hPa0.3 kmCalmFogFog
4:35 AM20.1 °C19.7 °C98 %1010.2 hPa0.3 kmCalmFogFog
4:55 AM20.1 °C19.7 °C98 %1010.2 hPa0.8 kmCalmFogFog
5:15 AM19.8 °C19.4 °C98 %1010.2 hPa0.8 kmCalmFogFog
5:35 AM19.8 °C19.5 °C98 %1010.2 hPa0.8 kmCalmFogFog
5:55 AM19.9 °C19.5 °C98 %1010.5 hPa0.8 kmCalmFogFog
6:15 AM19.2 °C18.9 °C98 %1010.5 hPa0.8 kmCalmFogFog
6:35 AM19.2 °C18.8 °C98 %1010.8 hPa0.3 kmCalmFogFog
6:55 AM19.3 °C18.9 °C98 %1010.8 hPa0.3 kmCalmFogFog
7:15 AM18.8 °C18.4 °C98 %1010.8 hPa1.3 kmCalmMist
7:35 AM19.2 °C18.8 °C98 %1010.8 hPa1.3 kmCalmMist
7:55 AM19.6 °C19.1 °C97 %1010.8 hPa1.9 kmCalmMist
8:15 AM20.9 °C20.5 °C98 %1011.5 hPa3.2 kmCalmClear
8:35 AM22.2 °C21.7 °C97 %1011.5 hPa6.4 kmNNW (330°)7.4 km/hClear
8:55 AM22.8 °C22.3 °C97 %1011.5 hPa8 kmNW (320°)7.4 km/hClear
9:15 AM23.1 °C22.6 °C97 %1011.9 hPa11.3 kmNW (320°)7.4 km/hClear
9:35 AM23.7 °C23.2 °C97 %1011.9 hPa16.1 kmNW (310°)7.4 km/hClear
9:55 AM24.6 °C23.3 °C92 %1011.9 hPa16.1 kmNNW (330°)7.4 km/hClear
10:15 AM26.1 °C22.9 °C82 %1012.2 hPa16.1 kmNW (310°)5.6 km/hClear
10:35 AM27 °C22.9 °C78 %1012.2 hPa16.1 kmNW (310°)9.3 km/hClear
10:55 AM27.7 °C23.1 °C76 %1012.2 hPa16.1 kmNW (320°)9.3 km/hClear
11:15 AM28.7 °C22.3 °C68 %1012.2 hPa16.1 kmNW (320°)9.3 km/hClear
11:35 AM29.7 °C21.9 °C63 %1011.9 hPa16.1 kmNNW (330°)5.6 km/hClear
11:55 AM30 °C20.2 °C55 %1011.9 hPa16.1 kmWNW (290°)7.4 km/hClear
12:15 PM30.7 °C20.4 °C54 %1011.5 hPa16.1 kmNNW (340°)5.6 km/hClear
12:35 PM31.1 °C19.2 °C49 %1011.5 hPa16.1 kmNNW (330°)9.3 km/hClear
12:55 PM31.4 °C18.7 °C47 %1011.5 hPa16.1 kmNW (320°)7.4 km/hClear
1:15 PM31.5 °C18.3 °C45 %1011.2 hPa16.1 kmNW (320°)7.4 km/hClear
1:35 PM32 °C17 °C40 %1010.8 hPa16.1 kmNW (320°)9.3 km/hClear
1:55 PM32.2 °C17 °C40 %1010.8 hPa16.1 kmWNW (300°)5.6 km/hClear
2:15 PM32.3 °C15.5 °C36 %1010.5 hPa16.1 kmNW (320°)7.4 km/hClear
2:35 PM32.7 °C14.3 °C33 %1010.2 hPa16.1 kmWNW (290°)7.4 km/hClear
2:55 PM32.5 °C13.8 °C32 %1009.8 hPa16.1 kmWNW (300°)5.6 km/hClear
3:15 PM32.6 °C13.7 °C32 %1009.8 hPa16.1 kmWNW (300°)7.4 km/hClear
3:35 PM32.5 °C12.6 °C30 %1009.5 hPa16.1 kmNW (320°)7.4 km/hClear
3:55 PM32.5 °C12.7 °C30 %1009.5 hPa16.1 kmCalmClear
4:15 PM32.6 °C12.8 °C30 %1009.1 hPa16.1 kmCalmClear
4:35 PM32.5 °C10.8 °C26 %1009.1 hPa16.1 kmWest (270°)7.4 km/hClear
4:55 PM32.2 °C9.9 °C25 %1009.1 hPa16.1 kmWNW (300°)7.4 km/hClear
5:15 PM32 °C10.5 °C26 %1009.1 hPa16.1 kmWest (280°)5.6 km/hClear
5:35 PM31.4 °C13 °C32 %1009.1 hPa16.1 kmCalmClear
5:55 PM30.8 °C13.7 °C35 %1009.1 hPa16.1 kmCalmClear
6:15 PM28.8 °C15.9 °C45 %1009.1 hPa16.1 kmCalmClear
6:35 PM26.8 °C18 °C58 %1009.1 hPa16.1 kmCalmClear
6:55 PM25.6 °C17.3 °C60 %1009.1 hPa16.1 kmCalmClear
7:15 PM24.3 °C18.1 °C68 %1009.5 hPa16.1 kmCalmClear
7:35 PM22.9 °C17.9 °C73 %1009.1 hPa16.1 kmCalmClear
7:55 PM21.9 °C18.1 °C79 %1009.5 hPa16.1 kmCalmClear
8:15 PM21.5 °C17.2 °C76 %1009.5 hPa16.1 kmCalmClear
8:35 PM21 °C17.1 °C78 %1009.8 hPa16.1 kmCalmClear
8:55 PM20.3 °C17.8 °C85 %1009.8 hPa16.1 kmSouth (190°)5.6 km/hClear
9:15 PM21.7 °C18.1 °C80 %1010.2 hPa16.1 kmCalmClear
9:35 PM20.5 °C18.7 °C89 %1010.2 hPa16.1 kmCalmClear
9:55 PM20.5 °C19.1 °C92 %1010.5 hPa16.1 kmCalmClear
10:15 PM20.3 °C19.4 °C95 %1010.5 hPa11.3 kmCalmClear
10:35 PM20.1 °C19.5 °C96 %1010.5 hPa11.3 kmCalmClear
10:55 PM20 °C19.2 °C95 %1010.5 hPa11.3 kmCalmClear
11:15 PM20 °C19.4 °C96 %1010.5 hPa11.3 kmCalmClear
11:35 PM19.7 °C19.1 °C96 %1010.8 hPa8 kmCalmClear
11:55 PM19.8 °C19.3 °C97 %1010.8 hPa6.4 kmCalmClear
Hourly data recorded from KORG, located 0 kilometers away from Mauriceville, Texas







STORIES FROM OUR PARTNERS